sat.trackr.live / text

‹ back to catalog

SHIYAN-24C 01

NORAD 58650 · 2023-206A

PAYLOAD ACTIVE UNKNOWN

§ Identity

Operator
Country
PRC
Launch date
2023-12-25
Launch site
SCSLA
Launch vehicle
Mass (kg)
RCS (m²)

External: N2YO · Heavens-Above · Gunter

§ Orbital elements

Epoch: 2026-05-20T16:49:19.449120Z

Period
96.12 min
Inclination
97.4041°
Eccentricity
0.0002037
Mean motion
14.98082859 rev/d
Perigee alt
571.4 km
Apogee alt
574.2 km
Semi-major
6,951.0 km
B*
1.0397e-4
RAAN
109.8851°
Arg perigee
277.5903°
Mean anomaly
82.5089°
Rev number
13,119

§ Raw data

SHIYAN-24C 011 58650U 23206A   26140.70091955  .00001176  00000+0  10397-3 0  99932 58650  97.4041 109.8851 0002037 277.5903  82.5089 14.98082859131199

JSON: /api/v1/satellites/58650 · /tle

For live sub-satellite position, see the globe view (requires WebGL).

§ Visibility from observer

Set your observer location to see the next 7 days of passes ≥ 10°. The values pass through the URL so the page stays shareable.

No JS? Fill the form by hand. The geolocation button needs JavaScript.